Wind_Speed
11 6 5 6 7 7 14 8 3 10 7 5 3 7 12 11 15 0 8 14 15 27 29 34 33 31 30 29 28 27 27 26 26 25 23 21 19 17 15 13 12 11 10 10 9 8 8 7 6
8 7 7 4 8 11 12 9 12 8 5 2 8 8 8 11 3 4 13 13 19 24 28 31 35 32 31 30 29 28 28 28 26 25 24 22 20 19 16 14 13 11 10 10 9 8 8 7 6
9 7 6 5 12 14 7 9 9 4 4 6 7 6 6 4 6 6 13 17 20 22 25 29 36 34 32 31 30 29 28 28 26 25 24 23 21 20 18 17 15 13 11 10 9 9 7 5 5
7 7 5 10 17 17 8 3 5 2 3 5 5 6 5 2 6 12 19 17 18 20 22 27 36 35 33 31 30 30 29 29 27 26 25 23 22 20 19 17 15 14 13 11 10 8 7 7 6
8 4 10 15 21 16 10 11 5 5 4 9 10 7 4 6 7 14 21 17 16 18 20 22 35 36 34 31 30 29 28 28 27 26 24 23 22 20 18 17 16 15 14 13 12 11 9 7 6
7 6 11 17 19 17 15 12 11 11 7 8 10 7 6 10 12 14 18 15 13 15 17 19 31 36 33 32 31 30 30 29 28 27 26 24 23 21 20 18 17 16 15 15 13 11 9 8 8
14 11 16 19 16 17 17 14 12 12 9 9 5 12 6 13 11 12 16 14 12 13 14 16 19 31 34 31 31 31 32 32 30 29 27 25 24 23 21 19 17 16 15 14 12 10 9 8 8
11 10 21 19 17 20 11 11 16 13 11 6 2 8 10 4 9 11 13 14 13 12 12 14 17 23 26 26 33 33 32 33 32 30 29 27 26 24 22 21 18 16 15 13 12 11 10 9 10
14 12 16 22 19 15 6 15 11 7 6 8 3 3 10 6 10 11 12 13 12 12 13 14 18 21 24 25 25 34 34 34 34 31 30 28 23 22 21 20 19 17 16 14 12 12 11 10 8
15 16 26 20 14 11 15 14 10 9 16 14 9 4 5 5 6 11 11 13 13 12 12 14 17 20 21 23 23 22 26 27 28 27 26 27 25 23 23 21 22 20 18 16 15 13 11 9 8
22 26 22 22 17 15 18 18 13 13 17 17 14 14 2 4 8 9 9 9 7 6 8 12 17 19 22 22 22 22 23 28 30 29 30 28 27 26 25 22 22 19 17 11 15 15 13 12 10
25 26 27 24 16 16 21 21 24 21 20 17 9 10 13 13 12 12 15 16 14 15 13 9 15 18 20 21 22 22 24 27 28 29 32 31 31 28 26 25 22 24 24 21 20 14 13 13 12
28 30 23 23 22 18 18 25 24 26 22 20 20 17 19 19 16 16 16 19 18 18 18 13 13 17 18 21 22 23 27 28 27 29 32 35 32 29 28 26 25 22 20 20 20 16 15 14 12
18 27 30 27 20 22 23 28 22 29 24 23 20 22 21 21 17 18 17 20 20 19 19 19 15 16 16 19 21 24 25 26 27 28 31 36 33 30 30 28 27 25 23 24 20 18 16 14 12
24 26 24 23 29 26 19 30 36 28 25 23 23 24 23 23 23 21 24 21 21 20 18 16 12 13 18 20 22 22 24 23 26 28 28 29 33 31 31 28 28 27 24 21 18 15 12 13 13
16 22 24 33 24 25 23 29 37 27 27 27 28 27 25 27 25 28 26 24 18 16 16 17 18 18 19 22 24 23 24 25 24 24 24 28 30 32 30 29 27 26 24 22 19 16 15 14 13
20 24 31 30 28 24 22 37 37 30 23 27 23 25 24 23 20 20 18 17 18 19 19 19 21 21 23 21 21 23 24 23 23 21 23 24 27 28 30 28 26 27 25 21 19 16 15 13 11
27 26 27 28 23 27 30 35 30 22 18 27 26 22 21 18 19 21 22 23 23 22 21 23 25 24 19 18 19 20 21 19 19 21 22 22 24 25 27 25 27 27 25 21 19 16 13 12 11
24 28 24 21 22 24 28 33 31 28 28 28 24 23 24 24 22 27 26 24 24 24 24 23 22 20 17 16 18 19 20 17 17 19 20 20 21 23 26 24 24 25 25 24 20 17 15 11 8
25 27 28 19 16 21 25 30 28 27 25 27 27 26 26 25 24 22 27 27 27 27 25 25 23 19 17 17 18 16 13 16 15 16 17 19 20 22 24 23 21 24 22 21 18 18 13 10 10
23 26 25 25 15 21 20 24 25 21 23 23 25 25 26 26 25 24 23 29 31 28 25 22 20 18 17 17 16 13 10 7 14 15 15 19 20 21 22 21 19 21 20 19 19 17 13 9 7
24 23 22 25 23 20 20 19 23 24 28 30 28 26 27 26 25 24 24 25 27 27 23 20 18 17 17 17 18 18 16 12 13 15 16 18 19 19 21 20 18 20 20 18 18 14 12 9 9
18 21 19 20 22 24 30 17 19 19 22 23 21 24 24 25 25 23 19 20 23 23 21 21 20 18 16 17 19 18 16 13 13 15 17 17 18 18 18 18 18 19 19 17 16 12 10 9 11
15 13 19 19 15 18 23 18 19 18 24 18 18 19 20 19 20 17 15 17 16 15 17 16 14 14 14 17 18 17 16 14 16 16 18 18 19 18 18 19 18 19 17 14 11 10 10 10 9
13 16 12 17 18 18 20 17 19 9 9 1 10 10 9 12 13 13 13 10 9 11 10 9 10 9 11 14 16 16 15 14 17 20 20 21 20 19 19 20 18 15 13 12 11 11 10 11 11
22 19 16 18 16 20 25 15 15 12 17 7 7 9 10 11 11 11 11 9 8 7 6 8 9 11 13 15 15 15 16 16 17 17 21 20 20 20 20 18 16 14 13 11 10 10 11 12 12
23 14 24 24 21 16 19 24 25 10 10 5 1 7 12 12 11 8 7 6 5 8 10 12 14 16 17 18 17 17 17 18 19 21 19 19 19 20 18 16 15 13 12 11 11 10 12 11 11
21 1 7 15 16 18 15 23 12 21 23 4 7 13 15 13 6 5 7 8 10 12 14 15 17 18 19 19 19 20 21 23 22 20 20 20 20 19 17 15 13 12 12 12 11 10 11 11 10
4 7 13 14 17 9 13 15 20 14 11 6 11 15 15 11 3 4 6 10 14 16 16 18 19 21 20 20 21 22 22 21 21 21 20 19 17 16 14 13 13 12 11 10 10 9 10 12 9
9 17 4 5 16 13 10 4 11 18 10 11 15 17 16 10 5 3 7 11 14 16 18 19 20 21 21 21 21 21 22 21 20 19 17 16 15 14 13 13 12 11 10 10 10 11 10 8 11
Wind_Direction
214 211 200 218 237 235 237 210 229 176 189 161 239 195 209 187 183 34 125 143 152 162 171 177 180 180 182 185 184 182 183 183 183 184 186 187 191 191 194 192 191 188 184 176 166 162 159 158 158
185 184 209 249 250 220 218 194 199 184 108 239 198 214 235 210 166 86 136 153 153 164 172 176 184 185 185 187 187 186 186 188 187 187 188 189 190 191 188 189 191 187 178 171 163 158 158 159 155
184 205 246 227 236 243 208 183 179 163 255 219 179 226 168 223 179 156 133 154 154 165 176 181 186 190 192 191 190 189 189 192 190 190 189 189 190 190 187 188 187 181 176 170 167 165 166 163 166
195 197 239 242 234 225 261 192 104 201 184 210 206 186 181 141 162 152 150 152 156 167 178 192 190 194 196 197 195 194 193 194 192 193 191 191 191 191 188 186 184 179 178 178 179 179 179 181 186
210 252 242 234 244 245 236 257 278 272 240 190 196 170 194 144 150 147 154 159 162 172 181 192 197 198 199 199 201 201 200 200 199 198 197 196 193 194 193 191 189 185 181 183 186 190 192 194 201
214 257 234 239 239 243 242 254 261 263 224 195 214 199 150 133 154 154 163 168 173 176 184 191 202 201 203 204 204 205 206 206 205 203 203 203 200 197 198 197 195 190 187 188 192 195 202 208 215
239 222 244 250 263 259 243 234 252 246 202 194 180 196 119 154 143 158 169 175 177 184 188 194 199 202 207 211 212 211 210 211 210 207 207 207 208 204 202 201 200 198 194 195 196 200 209 216 231
227 250 252 246 244 247 256 251 231 242 217 96 247 174 161 112 163 153 170 183 187 189 198 197 198 204 205 211 218 220 217 216 215 213 211 210 213 210 208 206 205 202 201 199 202 208 213 223 233
234 238 241 242 233 246 261 252 217 261 261 205 185 81 77 107 158 168 178 192 196 203 207 204 205 204 210 213 219 223 223 223 222 219 218 214 210 214 212 209 213 205 204 204 208 213 215 221 233
213 228 238 241 250 238 239 246 243 231 215 220 214 141 77 150 170 178 190 199 201 216 221 221 215 213 212 213 216 219 220 222 220 215 213 212 211 211 209 212 210 212 206 203 206 215 222 228 234
220 239 241 239 229 234 249 250 229 243 233 226 225 180 214 281 280 284 255 267 263 246 264 234 226 218 214 216 214 219 221 221 220 217 211 212 212 212 209 209 212 205 209 219 220 209 213 229 235
239 244 243 255 227 237 240 248 250 247 242 257 256 261 272 265 268 277 281 281 271 272 281 263 227 224 221 220 220 222 223 221 221 220 214 208 208 210 210 208 209 203 201 194 219 218 216 221 231
239 243 246 244 255 235 254 250 252 250 246 249 258 266 267 266 266 265 262 268 272 272 273 263 230 225 224 222 227 226 228 227 225 221 218 212 213 210 208 210 208 206 204 203 211 201 238 225 230
239 245 250 254 235 246 243 255 249 245 247 254 259 261 265 269 268 270 261 258 262 262 262 266 244 239 221 229 232 233 234 232 231 227 222 215 213 212 210 208 209 207 202 203 215 226 209 220 232
258 262 259 245 243 238 245 255 247 251 252 255 258 260 262 265 270 267 266 261 264 264 260 265 258 232 236 242 244 242 241 236 231 230 226 220 215 216 211 212 211 213 209 206 212 228 214 213 230
252 245 247 238 229 239 225 253 245 241 251 253 255 259 260 261 259 264 265 267 263 259 262 262 261 253 249 245 252 246 243 238 233 227 226 220 217 216 213 216 214 213 209 210 212 210 219 226 229
236 239 231 248 231 222 221 243 255 256 254 248 253 258 261 262 264 263 263 262 261 264 266 262 261 262 265 257 252 245 241 235 234 225 221 218 216 217 216 216 215 210 212 209 208 215 222 225 229
232 235 245 259 238 229 225 242 248 264 246 250 245 252 250 257 259 266 267 267 267 262 259 257 261 262 257 256 249 240 235 229 227 222 219 215 212 212 209 215 212 207 210 207 208 211 214 217 239
265 267 254 270 243 254 236 245 251 248 248 254 250 251 260 263 269 271 270 266 265 260 256 256 257 254 245 240 232 228 222 218 219 217 212 210 205 200 203 210 210 206 207 203 197 201 207 220 229
245 252 256 259 264 244 240 249 250 250 252 251 253 255 262 265 263 262 262 261 258 258 257 254 254 251 237 234 228 229 221 218 212 206 204 198 193 198 202 204 202 201 201 197 189 195 197 216 213
253 247 249 248 244 237 248 253 252 248 252 256 257 257 258 260 264 266 266 265 261 257 253 252 248 239 234 230 223 214 200 192 193 191 188 190 193 198 199 199 196 192 193 189 190 195 196 217 208
247 249 247 250 247 244 226 256 247 242 242 241 246 249 255 259 262 264 263 262 260 259 254 250 249 243 243 226 213 205 194 192 198 188 181 183 191 189 190 189 189 184 183 185 190 187 213 213 224
261 243 247 247 239 248 246 256 262 254 255 253 253 251 254 257 257 262 266 268 266 256 248 246 250 249 238 215 208 200 205 184 174 172 167 166 172 176 177 180 180 178 181 181 180 190 203 217 243
257 255 249 241 265 244 238 240 259 253 247 250 254 247 255 261 260 262 274 262 256 249 240 237 241 240 224 206 202 197 186 171 163 151 150 155 156 162 169 171 170 173 177 176 183 194 209 225 215
235 234 234 223 225 238 234 233 242 330 109 32 268 232 279 278 262 256 258 243 232 223 226 228 224 205 189 185 182 180 171 166 157 146 150 151 152 160 162 164 166 170 171 175 185 191 196 200 207
238 231 236 232 228 230 224 234 225 233 261 282 254 268 278 290 289 262 252 244 227 218 198 189 162 149 150 151 155 155 154 154 147 152 149 150 155 156 157 163 164 163 165 170 177 188 197 198 206
247 226 260 260 281 241 219 214 256 250 247 211 320 338 326 313 302 270 207 178 152 155 152 142 136 133 132 129 131 135 135 138 134 134 136 140 141 144 152 157 157 159 167 174 179 192 198 202 209
247 314 291 239 255 234 223 210 222 209 228 190 18 351 347 338 303 158 148 124 148 137 127 125 127 124 121 123 125 124 123 123 128 130 130 133 137 143 148 149 154 163 172 177 190 195 201 206 212
259 229 236 253 238 255 225 208 200 123 102 62 15 4 3 348 48 105 133 149 136 129 127 123 121 118 118 119 119 121 121 123 127 129 131 131 134 141 148 154 158 166 173 184 197 206 209 212 212
200 241 271 268 226 248 302 79 100 123 97 30 10 8 19 7 12 130 147 141 137 132 127 121 119 119 120 120 118 119 124 126 127 127 130 135 139 145 148 152 157 165 180 193 212 221 220 215 214
Height
790 792 791 788 792 773 764 755 739 746 748 736 736 736 734 728 740 754 735 739 743 747 751 754 759 765 768 772 774 775 777 779 782 784 787 789 791 792 794 795 797 798 798 799 800 800 801 802 802
790 791 789 774 787 775 758 740 749 735 732 732 734 737 740 739 721 728 734 740 742 747 751 754 756 761 766 770 772 775 776 779 781 783 786 788 789 791 793 795 797 798 799 800 800 802 803 803 803
791 789 777 775 771 768 746 740 735 734 731 734 736 730 732 736 728 728 733 738 742 747 751 753 754 758 762 765 770 773 776 779 781 783 785 787 788 790 791 793 795 796 799 800 802 802 803 804 804
788 784 776 781 767 753 745 737 737 736 729 727 727 736 727 727 726 728 735 740 744 747 751 753 754 758 761 764 769 772 775 778 780 783 784 786 788 789 790 792 793 795 797 798 801 802 803 804 805
786 776 779 774 763 745 740 738 737 740 733 729 727 732 729 727 730 732 735 740 742 746 750 753 754 757 761 764 768 773 775 778 779 782 783 785 786 788 791 792 793 794 795 798 799 801 802 803 804
779 770 778 772 759 747 739 735 737 735 727 724 729 728 725 725 730 734 735 740 743 746 749 752 753 757 761 763 766 771 774 776 778 780 782 785 786 788 790 792 793 793 794 796 798 799 801 802 803
776 772 769 761 760 751 741 729 739 732 727 725 715 730 723 723 729 733 734 739 742 746 748 752 754 757 760 763 765 767 770 774 777 779 781 785 787 788 789 792 793 794 795 796 797 799 800 801 802
767 764 767 755 763 763 737 735 727 729 728 719 719 730 734 725 729 732 735 738 741 745 748 749 753 755 757 761 762 765 768 771 775 777 779 782 786 787 788 790 792 794 795 796 798 799 800 800 800
765 769 762 753 755 752 739 742 722 722 724 726 721 720 725 729 729 731 734 737 738 742 745 747 749 751 754 758 759 761 765 768 771 774 778 780 783 786 787 789 791 792 794 796 797 798 797 798 798
761 758 746 736 737 751 742 739 727 733 729 728 726 730 730 731 728 728 731 731 733 738 741 744 746 748 751 753 757 759 763 766 768 770 773 777 779 782 784 786 787 789 790 791 792 795 797 797 796
749 746 730 730 733 741 740 733 728 735 731 720 723 727 728 732 732 731 729 729 727 733 736 739 742 745 747 749 751 755 757 759 761 764 766 770 774 776 778 781 783 785 789 795 793 789 791 794 793
753 734 734 729 731 742 741 730 729 725 726 716 717 724 728 729 729 731 731 729 729 730 732 736 738 741 743 746 747 748 750 753 754 757 760 763 766 770 772 774 778 780 778 779 791 789 787 788 791
742 734 729 730 733 735 736 730 727 721 716 716 718 722 725 723 724 727 730 731 729 728 728 730 733 736 738 739 741 741 742 745 747 749 752 755 758 762 766 769 772 776 778 780 783 780 786 786 788
733 734 732 728 731 731 738 724 726 712 712 713 719 717 715 714 717 721 724 726 726 724 723 725 727 730 731 732 734 734 736 738 741 742 744 746 751 755 759 763 766 769 770 772 777 780 778 783 783
740 743 733 727 725 729 729 731 715 708 709 711 713 711 710 710 712 713 716 718 719 718 720 720 722 724 725 724 726 728 729 730 732 734 738 741 746 749 753 756 759 763 766 768 772 776 778 776 779
750 745 741 711 722 721 732 726 693 700 704 706 705 703 702 701 704 705 708 708 713 714 716 717 717 718 718 718 719 720 722 724 723 726 731 734 739 744 746 749 753 758 760 763 767 770 773 775 774
737 732 721 718 705 719 726 718 695 695 696 696 697 694 694 692 693 700 704 706 708 711 711 712 712 712 712 711 712 713 714 715 717 719 723 727 732 736 741 744 747 752 755 758 762 766 769 769 772
724 721 721 716 701 705 713 705 698 691 691 689 689 690 688 689 690 695 698 701 703 705 706 706 706 705 706 706 706 707 707 707 710 713 716 721 725 730 735 739 741 745 749 753 757 761 765 767 769
726 718 709 706 699 703 700 698 695 692 691 690 688 689 689 688 688 691 693 696 697 698 698 698 699 699 700 700 700 699 698 700 704 707 711 716 720 725 730 733 736 740 742 746 750 757 760 763 767
730 731 719 714 703 703 703 697 691 686 683 681 683 683 684 683 683 683 685 687 689 689 690 689 690 692 693 693 693 693 692 694 697 702 706 711 715 721 724 728 731 735 738 743 748 751 754 759 764
733 732 726 719 710 707 708 702 693 682 681 681 679 680 680 678 677 676 675 676 677 678 680 681 682 683 685 686 688 688 689 691 694 698 704 708 712 716 720 724 727 730 735 740 745 750 752 755 760
734 723 721 721 720 716 701 705 683 676 674 672 671 671 668 665 665 665 663 663 665 667 670 672 674 676 677 678 679 680 681 685 689 694 700 704 708 712 716 721 724 728 732 736 742 746 749 752 756
724 717 717 718 714 713 706 705 679 673 673 667 663 660 658 656 655 653 653 653 655 658 661 663 666 667 668 669 672 675 678 681 687 691 696 701 706 710 715 719 723 727 730 735 739 743 746 750 751
719 722 719 720 717 710 696 696 678 669 659 655 650 648 650 646 644 645 645 647 649 652 653 655 657 658 661 664 668 672 674 677 682 687 695 700 705 709 714 718 721 726 730 733 738 742 745 747 749
720 723 723 721 716 712 688 695 683 654 643 651 654 647 646 643 641 639 638 639 643 645 647 650 653 654 658 661 665 669 674 678 682 688 694 698 703 708 712 717 721 726 730 733 737 740 742 745 748
721 716 713 706 694 691 685 688 672 653 649 646 649 645 642 638 633 631 632 636 637 642 646 648 650 653 657 660 664 668 673 677 681 685 691 695 701 706 712 716 721 725 728 732 735 738 740 743 746
719 724 707 699 689 671 662 672 662 650 652 646 645 644 641 635 630 627 629 633 638 644 645 647 650 654 657 661 665 670 673 676 681 687 692 697 702 708 713 717 721 724 728 731 734 735 739 741 743
716 724 737 700 711 686 656 659 661 642 652 647 650 647 636 631 626 625 631 639 641 643 646 649 653 656 659 663 668 671 675 680 686 691 695 700 706 710 715 718 721 725 728 730 733 734 737 739 740
728 726 723 704 686 671 659 645 630 640 650 657 652 643 636 635 627 635 640 640 641 644 648 652 655 657 661 666 671 675 679 684 689 694 699 703 707 711 715 718 721 724 727 729 732 733 734 735 736
717 726 726 727 701 672 674 648 631 640 648 653 650 643 635 645 645 644 643 637 641 645 648 652 656 660 666 670 674 679 684 689 693 697 701 705 709 712 715 718 721 723 725 728 729 729 730 732 734